Flag for Germany Past Weather in Bietigheim-Bissingen, Baden-Württemberg, Germany — Yesterday and Last 2 Weeks

Now
66 °F

Thunderstorms. Partly sunny.


Feels Like: 66 °F
Forecast: 59 / 74 °F
Wind: 9 mph from North

Location: Stuttgart-Echterdingen

Current Time: May 28, 2016 at 3:54:26 PM

Latest Report: May 28, 2016 at 3:20 PM


Visibility: 4 mi

Pressure: 29.89 "Hg

Humidity: 88%

Dew Point: 63 °F

Location of Bietigheim-BissingenLocation

Past Weather in Bietigheim-Bissingen — Graph

°F

Bietigheim-Bissingen Temperature Yesterday

Maximum temperature yesterday: 75 °F (at 1:50 PM)
Minimum temperature yesterday: 57 °F (at 1:50 AM)
Average temperature yesterday: 66 °F

High & Low Weather Summary for the Past Weeks

 TemperatureHumidityPressure
High81 °F (May 22, 3:50 PM)100% (May 14, 5:50 AM)30.15 "Hg (May 14, 5:50 AM)
Low41 °F (May 15, 6:50 AM)34% (May 22, 1:50 PM)29.56 "Hg (May 13, 2:20 PM)
Average56 °F74%29.97 "Hg
* Reported May 13 2:20 PM — May 28 2:20 PM, Bietigheim-Bissingen, Weather by CustomWeather, © 2016

Note: Actual official high and low records may vary slightly from our data, if they occured in-between our weather recording intervals... More about our weather records

Advertising

Bietigheim-Bissingen Weather History for the Previous 24 Hours

Scroll right to see more
 ConditionsComfort  
Time TempWeatherWind HumidityBarometerVisibility
2:20 PM
Sat, May 28
73 °FScattered showers. Scattered clouds.10 mph69%29.89 "HgN/A
1:50 PM72 °FScattered showers. Scattered clouds.7 mph69%29.89 "HgN/A
1:20 PM72 °FScattered clouds.10 mph69%29.92 "HgN/A
12:50 PM73 °FScattered clouds.9 mph69%29.92 "HgN/A
12:20 PM72 °FPartly sunny.7 mph69%29.92 "HgN/A
11:50 AM72 °FBroken clouds.6 mph61%29.92 "HgN/A
11:20 AM72 °FPartly sunny.3 mph61%29.92 "HgN/A
10:50 AM70 °FPartly sunny.3 mph60%29.92 "HgN/A
10:20 AM68 °FScattered showers. Broken clouds.5 mph69%29.92 "HgN/A
9:50 AM66 °FScattered showers. Broken clouds.3 mph73%29.95 "HgN/A
9:20 AM64 °FScattered showers. Broken clouds.5 mph78%29.95 "HgN/A
8:50 AM64 °FScattered showers. Partly sunny.5 mph78%29.95 "HgN/A
8:20 AM63 °FPassing clouds.3 mph83%29.95 "HgN/A
7:50 AM63 °FPartly sunny.3 mph88%29.95 "HgN/A
7:20 AM61 °FBroken clouds.2 mph88%29.95 "HgN/A
6:50 AM61 °FBroken clouds.5 mph88%29.95 "HgN/A
6:20 AM59 °FPartly cloudy.2 mph88%29.95 "HgN/A
5:50 AM59 °FScattered showers. Passing clouds.5 mph94%29.95 "HgN/A
5:20 AM59 °FThundershowers. Passing clouds.3 mph94%29.95 "HgN/A
4:50 AM59 °FPassing clouds.6 mph88%29.95 "HgN/A
4:20 AM59 °FClear.2 mph88%29.95 "Hg10 mi
3:50 AM59 °FClear.1 mph88%29.95 "Hg10 mi
3:20 AM59 °FPassing clouds.5 mph88%29.95 "HgN/A
2:50 AM59 °FPassing clouds.5 mph88%29.95 "HgN/A
2:20 AM61 °FPassing clouds.1 mph83%29.95 "HgN/A
1:50 AM61 °FPassing clouds.1 mph88%29.95 "HgN/A
1:20 AM61 °FPassing clouds.5 mph88%29.95 "HgN/A
12:50 AM61 °FClear.3 mph83%29.95 "Hg10 mi
12:20 AM63 °FClear.2 mph77%29.98 "Hg10 mi
11:50 PM
Fri, May 27
64 °FClear.No wind73%29.98 "Hg10 mi
11:20 PM64 °FClear.5 mph73%29.98 "Hg10 mi
10:50 PM66 °FClear.3 mph68%29.98 "Hg10 mi
10:20 PM66 °FClear.5 mph68%29.98 "Hg10 mi
9:50 PM68 °FSunny.3 mph64%29.98 "Hg10 mi
9:20 PM68 °FPartly sunny.5 mph69%29.95 "HgN/A
8:50 PM70 °FPartly sunny.6 mph64%29.95 "HgN/A
8:20 PM72 °FPartly sunny.6 mph61%29.95 "HgN/A
7:50 PM72 °FPartly sunny.5 mph61%29.95 "HgN/A
7:20 PM72 °FScattered clouds.7 mph65%29.95 "HgN/A
6:50 PM73 °FScattered clouds.5 mph65%29.95 "HgN/A
6:20 PM73 °FPassing clouds.6 mph65%29.95 "HgN/A
5:50 PM73 °FPassing clouds.5 mph65%29.95 "HgN/A
5:20 PM72 °FPassing clouds.6 mph65%29.95 "HgN/A
4:50 PM72 °FScattered clouds.7 mph61%29.95 "HgN/A
4:20 PM72 °FScattered clouds.6 mph65%29.95 "HgN/A
3:50 PM72 °FScattered clouds.10 mph65%29.95 "HgN/A
3:20 PM70 °FThundershowers. Scattered clouds.14 mph69%29.95 "HgN/A
Weather by CustomWeather, © 2016

See weather overviewHow to use our weather pages